"Pseudo-MPEC" for P12gf8A

Created 2025 Oct 18 1:35:15 UT using Find_Orb

Click here for an explanation of pseudo-MPECs

 
 Astrometry: 
     P12gf8A* C2025 10 02.50785302 46 03.168+01 04 08.49   ~A2EZ 22.23wXNEOCPF51
     P12gf8A  C2025 10 02.52137502 46 02.993+01 04 16.87   ~A2EZ 22.20wXNEOCPF51
     P12gf8A  C2025 10 02.53489602 46 02.799+01 04 24.75   ~A2EZ 21.74wXNEOCPF51
     P12gf8A  C2025 10 02.54832802 46 02.621+01 04 32.82   ~A2EZ 21.84wXNEOCPF51
     P12gf8A  C2025 10 02.61771802 46 01.705+01 05 13.91   ~A2IZ 21.81GVNEOCPF51
     P12gf8A  C2025 10 02.61853502 46 01.691+01 05 14.36   ~A2IZ 21.70GVNEOCPF51

Station data:
(F51) Pan-STARRS 1, Haleakala  (N20.707234 W156.255910)  US/Hawaii.
   Observers J. Herman, T. Lowe, P. Minguez, A. Schultz, I. Smith. Measurers
   K. Chambers, T. de Boer, J. Fairlamb, H. Gao, M. Huber, C.-C. Lin, E.
   Magnier, Y. Ramanjooloo, R. Wainscoat, R. Weryk. 1.8-m Ritchey-Chrétien +
   CCD.

Orbital elements:  P12gf8A
   Perihelion 2025 Aug 19.783626 +/- 52.9 TT = 18:48:25.2 (JD 2460907.283626)
Epoch 2025 Oct  3.0 TT = JDT 2460951.5   Earth MOID: 0.5018   Ju: 0.2459
M   3.008301568 +/- 23              Sa: 0.8122                   AutoNEOCP
n   0.068035917 +/- 0.158           Peri.  288.115072 +/- 80
a   5.942609872 +/- 9.17            Node    61.681953 +/- 18
e   0.75148981 +/- 0.238            Incl.    8.649837 +/- 6
P  14.48658                H 20.93  G  0.15   U 11.5  SR
q 1.476799068 +/- 0.453    Q 10.40842067 +/- 15.8         (J2000 ecliptic)
From 6 observations 2025 Oct. 2 (2.7 hr); mean residual 0".08
Residuals in arcseconds: 
251002 F51  .03-  .19-    251002 F51  .07-  .00     251002 F51  .03+  .01-    
251002 F51  .09+  .15+    251002 F51  .00   .09+    251002 F51  .02-  .04-    

Ephemerides (geocentric):
Date (UTC) HH   RA             Dec           delta  r     elong  mag " sig PA
---- --------  ------------   ------------  ------ ------ -----  --- --------
2025 10 18 02  02 39 41.572   +03 42 00.22  .66551 1.6423 162.0 21.8  20d  86
2025 10 18 03  02 39 40.024   +03 42 25.99  .66565 1.6425 162.1 21.8  20d  86
2025 10 18 04  02 39 38.475   +03 42 51.77  .66580 1.6427 162.1 21.8  20d  86
2025 10 18 05  02 39 36.924   +03 43 17.55  .66594 1.6430 162.1 21.8  20d  86
2025 10 18 06  02 39 35.371   +03 43 43.32  .66608 1.6432 162.2 21.8  20d  86
2025 10 18 07  02 39 33.816   +03 44 09.10  .66622 1.6434 162.2 21.8  20d  86
2025 10 18 08  02 39 32.259   +03 44 34.89  .66637 1.6436 162.3 21.8  20d  86
2025 10 18 09  02 39 30.701   +03 45 00.67  .66651 1.6438 162.3 21.8  20d  86
2025 10 18 10  02 39 29.141   +03 45 26.46  .66666 1.6440 162.3 21.8  20d  87
2025 10 18 11  02 39 27.579   +03 45 52.24  .66680 1.6443 162.4 21.8  20d  87
2025 10 18 12  02 39 26.015   +03 46 18.03  .66694 1.6445 162.4 21.8  20d  87
2025 10 18 13  02 39 24.450   +03 46 43.82  .66709 1.6447 162.5 21.8  20d  87
2025 10 18 14  02 39 22.883   +03 47 09.62  .66723 1.6449 162.5 21.8  20d  87
2025 10 18 15  02 39 21.314   +03 47 35.41  .66738 1.6451 162.5 21.8  20d  87
2025 10 18 16  02 39 19.743   +03 48 01.21  .66753 1.6453 162.6 21.8  20d  87
2025 10 18 17  02 39 18.171   +03 48 27.00  .66767 1.6456 162.6 21.8  20d  87
2025 10 18 18  02 39 16.597   +03 48 52.80  .66782 1.6458 162.7 21.8  20d  87
2025 10 18 19  02 39 15.021   +03 49 18.60  .66797 1.6460 162.7 21.8  20d  87
2025 10 18 20  02 39 13.444   +03 49 44.41  .66811 1.6462 162.7 21.8  20d  87
2025 10 18 21  02 39 11.865   +03 50 10.21  .66826 1.6464 162.8 21.8  20d  87
2025 10 18 22  02 39 10.284   +03 50 36.02  .66841 1.6466 162.8 21.8  20d  87
2025 10 18 23  02 39 08.702   +03 51 01.83  .66856 1.6469 162.9 21.8  20d  87
2025 10 19 00  02 39 07.118   +03 51 27.63  .66870 1.6471 162.9 21.8  20d  87
2025 10 19 01  02 39 05.532   +03 51 53.45  .66885 1.6473 162.9 21.8  20d  87
2025 10 19 02  02 39 03.945   +03 52 19.26  .66900 1.6475 163.0 21.8  20d  87
2025 10 19 03  02 39 02.356   +03 52 45.07  .66915 1.6477 163.0 21.8  20d  87
2025 10 19 04  02 39 00.766   +03 53 10.89  .66930 1.6480 163.1 21.8  20d  87
2025 10 19 05  02 38 59.174   +03 53 36.70  .66945 1.6482 163.1 21.8  20d  87
2025 10 19 06  02 38 57.580   +03 54 02.52  .66960 1.6484 163.1 21.8  20d  87
2025 10 19 07  02 38 55.985   +03 54 28.34  .66975 1.6486 163.2 21.8  20d  87
2025 10 19 08  02 38 54.388   +03 54 54.17  .66990 1.6488 163.2 21.8  20d  87
2025 10 19 09  02 38 52.789   +03 55 19.99  .67006 1.6491 163.3 21.8  20d  87
2025 10 19 10  02 38 51.190   +03 55 45.81  .67021 1.6493 163.3 21.8  20d  87
2025 10 19 11  02 38 49.588   +03 56 11.64  .67036 1.6495 163.3 21.8  20d  87
2025 10 19 12  02 38 47.985   +03 56 37.47  .67051 1.6497 163.4 21.8  20d  87
2025 10 19 13  02 38 46.380   +03 57 03.30  .67066 1.6499 163.4 21.8  20d  87
2025 10 19 14  02 38 44.774   +03 57 29.13  .67082 1.6501 163.5 21.8  20d  87
2025 10 19 15  02 38 43.167   +03 57 54.96  .67097 1.6504 163.5 21.8  20d  87
2025 10 19 16  02 38 41.558   +03 58 20.80  .67113 1.6506 163.5 21.8  20d  87
2025 10 19 17  02 38 39.947   +03 58 46.63  .67128 1.6508 163.6 21.8  21d  87
2025 10 19 18  02 38 38.335   +03 59 12.47  .67143 1.6510 163.6 21.8  21d  87
2025 10 19 19  02 38 36.722   +03 59 38.31  .67159 1.6512 163.7 21.8  21d  87
2025 10 19 20  02 38 35.107   +04 00 04.15  .67174 1.6515 163.7 21.8  21d  87
2025 10 19 21  02 38 33.490   +04 00 29.99  .67190 1.6517 163.7 21.8  21d  87
2025 10 19 22  02 38 31.872   +04 00 55.84  .67205 1.6519 163.8 21.8  21d  87
2025 10 19 23  02 38 30.253   +04 01 21.68  .67221 1.6521 163.8 21.8  21d  87
2025 10 20 00  02 38 28.632   +04 01 47.53  .67237 1.6523 163.9 21.8  21d  87
2025 10 20 01  02 38 27.010   +04 02 13.37  .67252 1.6526 163.9 21.8  21d  87